Weather History for Inverness, FL

Change the Weather History Date:

Friday, January 4, 2013

  Actual Average (KOCF) Record (KOCF)
Temperature  
Mean Temperature 55 °F -  
Max Temperature 59 °F 66 °F 82 °F (2000)
Min Temperature 51 °F 41 °F 21 °F (2012)
Degree Days  
Heating Degree Days 10    
Growing Degree Days 5 (Base 50)    
Moisture  
Dew Point 53 °F    
Average Humidity 91    
Maximum Humidity 100    
Minimum Humidity 77    
Precipitation  
Precipitation 0.01 in - - ()
Sea Level Pressure  
Sea Level Pressure 30.27 in    
Wind  
Wind Speed 7 mph (NNE)    
Max Wind Speed 17 mph    
Max Gust Speed 18 mph    
Visibility 9 miles    
Events Rain    
Averages and records for this station are not official NWS values.
T = Trace of Precipitation, MM = Missing Value Source: NWS Daily Summary

Daily Weather History Graph

Daily Weather History Graph

Search for Another Location

Airport:

Trip Planner

Search our weather history database for the weather conditions in past years. The results will help you decide how hot, cold, wet, or windy it might be!

Date:

Astronomy

Jan. 04, 2013 Rise Set
Actual Time 7:23 AM EST 5:45 PM EST
Civil Twilight 6:57 AM EST 6:11 PM EST
Nautical Twilight 6:28 AM EST 6:40 PM EST
Astronomical Twilight 5:59 AM EST 7:09 PM EST
Moon No Moon Rise 11:41 AM EST (1/4)
Length of Visible Light 11h 14m
Length of Day
10h 22m
Waning Gibbous, 55% of the Moon is Illuminated
Jan 4
Waning Gibbous
Jan 4
Last Quarter
Jan 11
New
Jan 18
First Quarter
Jan 26
Full

Hourly Weather History & Observations

Time (EST) Temp. Dew Point Humidity Pressure Visibility Wind Dir Wind Speed Gust Speed Precip Events Conditions
12:15 AM 55.4 °F 55.4 °F 100% 30.23 in 7.0 mi NNE 17.3 mph - N/A   Drizzle
12:35 AM 51.8 °F 51.8 °F 100% 30.23 in 10.0 mi North 10.4 mph 18.4 mph N/A   Light Drizzle
12:55 AM 51.8 °F 51.8 °F 100% 30.22 in 7.0 mi NNE 8.1 mph - N/A   Drizzle
1:15 AM 51.8 °F 51.8 °F 100% 30.22 in 7.0 mi NE 9.2 mph - N/A   Overcast
1:35 AM 51.8 °F 51.8 °F 100% 30.22 in 10.0 mi NNE 8.1 mph - N/A   Overcast
1:55 AM 51.8 °F 51.8 °F 100% 30.22 in 10.0 mi NNE 3.5 mph - N/A Rain Rain
2:35 AM 51.8 °F 51.8 °F 100% 30.22 in 7.0 mi NNE 6.9 mph - 0.01 in   Light Drizzle
2:55 AM 51.8 °F 51.8 °F 100% 30.21 in 7.0 mi NNE 6.9 mph - 0.01 in Rain Rain
3:15 AM 51.8 °F 51.8 °F 100% 30.21 in 10.0 mi North 6.9 mph - N/A   Light Drizzle
3:35 AM 51.8 °F 51.8 °F 100% 30.22 in 10.0 mi North 6.9 mph - N/A   Overcast
3:55 AM 51.8 °F 51.8 °F 100% 30.22 in 10.0 mi NNE 11.5 mph - N/A   Overcast
4:15 AM 51.8 °F 51.8 °F 100% 30.22 in 10.0 mi North 11.5 mph - N/A   Overcast
6:35 AM 51.8 °F 50.0 °F 94% 30.24 in 7.0 mi NNE 6.9 mph - N/A   Overcast
6:55 AM 51.8 °F 50.0 °F 94% 30.25 in 5.0 mi NNE 5.8 mph - N/A Rain Rain
7:15 AM 51.8 °F 50.0 °F 94% 30.26 in 4.0 mi NE 5.8 mph - N/A   Drizzle
7:35 AM 51.8 °F 50.0 °F 94% 30.27 in 4.0 mi NE 3.5 mph - N/A   Light Drizzle
8:15 AM 51.8 °F 51.8 °F 100% 30.27 in 4.0 mi NE 3.5 mph - N/A   Overcast
8:35 AM 51.8 °F 51.8 °F 100% 30.28 in 7.0 mi NNE 4.6 mph - N/A   Overcast
8:55 AM 51.8 °F 51.8 °F 100% 30.29 in 10.0 mi NE 6.9 mph - N/A   Overcast
9:15 AM 51.8 °F 51.8 °F 100% 30.30 in 10.0 mi NNE 4.6 mph - N/A   Overcast
9:55 AM 53.6 °F 51.8 °F 94% 30.29 in 10.0 mi NNE 5.8 mph - N/A   Overcast
10:15 AM 53.6 °F 51.8 °F 94% 30.29 in 10.0 mi NNE 6.9 mph - N/A   Overcast
10:35 AM 53.6 °F 51.8 °F 94% 30.29 in 10.0 mi North 5.8 mph - N/A   Overcast
10:55 AM 53.6 °F 51.8 °F 94% 30.30 in 10.0 mi North 3.5 mph - N/A   Overcast
11:15 AM 55.4 °F 53.6 °F 94% 30.29 in 10.0 mi NNE 6.9 mph - N/A   Overcast
11:35 AM 55.4 °F 53.6 °F 94% 30.29 in 10.0 mi NNE 6.9 mph - N/A   Overcast
11:55 AM 55.4 °F 53.6 °F 94% 30.29 in 10.0 mi ENE 4.6 mph - N/A   Overcast
12:15 PM 57.2 °F 53.6 °F 88% 30.27 in 10.0 mi NE 4.6 mph - N/A   Overcast
12:35 PM 57.2 °F 53.6 °F 88% 30.27 in 10.0 mi NNE 5.8 mph - N/A   Overcast
12:55 PM 59.0 °F 53.6 °F 82% 30.26 in 10.0 mi North 3.5 mph - N/A   Overcast
1:15 PM 59.0 °F 53.6 °F 82% 30.25 in 10.0 mi North 5.8 mph - N/A   Overcast
1:35 PM 59.0 °F 53.6 °F 82% 30.24 in 10.0 mi NE 4.6 mph - N/A   Overcast
1:55 PM 59.0 °F 53.6 °F 82% 30.24 in 10.0 mi NE 4.6 mph - N/A   Overcast
2:15 PM 59.0 °F 53.6 °F 82% 30.23 in 10.0 mi NNE 3.5 mph - N/A   Overcast
2:35 PM 59.0 °F 53.6 °F 82% 30.23 in 10.0 mi NE 5.8 mph - N/A   Overcast
2:55 PM 59.0 °F 53.6 °F 82% 30.23 in 10.0 mi NE 4.6 mph - N/A   Overcast
3:15 PM 59.0 °F 53.6 °F 82% 30.24 in 10.0 mi NNW 5.8 mph - N/A   Overcast
3:35 PM 59.0 °F 53.6 °F 82% 30.24 in 10.0 mi North 6.9 mph - N/A   Overcast
3:55 PM 59.0 °F 53.6 °F 82% 30.25 in 10.0 mi North 5.8 mph - N/A   Overcast
4:15 PM 59.0 °F 53.6 °F 82% 30.26 in 10.0 mi North 5.8 mph - N/A   Overcast
4:35 PM 59.0 °F 53.6 °F 82% 30.26 in 10.0 mi North 6.9 mph - N/A   Overcast
4:55 PM 59.0 °F 53.6 °F 82% 30.27 in 10.0 mi North 5.8 mph - N/A   Overcast
5:15 PM 59.0 °F 53.6 °F 82% 30.27 in 10.0 mi North 4.6 mph - N/A   Overcast
5:35 PM 59.0 °F 53.6 °F 82% 30.27 in 10.0 mi North 3.5 mph - N/A   Overcast
5:55 PM 59.0 °F 53.6 °F 82% 30.27 in 10.0 mi Calm Calm - N/A   Overcast
6:15 PM 57.2 °F 53.6 °F 88% 30.27 in 10.0 mi Calm Calm - N/A   Overcast
6:35 PM 57.2 °F 53.6 °F 88% 30.28 in 10.0 mi Calm Calm - N/A   Overcast
6:55 PM 57.2 °F 55.4 °F 94% 30.28 in 10.0 mi Calm Calm - N/A   Overcast
7:15 PM 57.2 °F 55.4 °F 94% 30.29 in 10.0 mi Calm Calm - N/A   Overcast
7:35 PM 57.2 °F 55.4 °F 94% 30.29 in 10.0 mi Calm Calm - N/A   Overcast
7:55 PM 59.0 °F 53.6 °F 82% 30.29 in 10.0 mi Calm Calm - N/A   Overcast
8:15 PM 59.0 °F 53.6 °F 82% 30.30 in 10.0 mi NNE 5.8 mph - N/A   Overcast
8:35 PM 59.0 °F 53.6 °F 82% 30.31 in 10.0 mi North 3.5 mph - N/A   Overcast
8:55 PM 59.0 °F 51.8 °F 77% 30.30 in 10.0 mi NNE 3.5 mph - N/A   Overcast
9:15 PM 57.2 °F 51.8 °F 82% 30.30 in 10.0 mi NE 4.6 mph - N/A   Overcast
9:35 PM 55.4 °F 51.8 °F 88% 30.30 in 10.0 mi NE 4.6 mph - N/A   Mostly Cloudy
9:55 PM 55.4 °F 51.8 °F 88% 30.30 in 10.0 mi NE 3.5 mph - N/A   Scattered Clouds
10:35 PM 53.6 °F 50.0 °F 88% 30.32 in 10.0 mi North 10.4 mph - N/A   Scattered Clouds
10:55 PM 53.6 °F 50.0 °F 88% 30.32 in 10.0 mi NNE 5.8 mph - N/A   Scattered Clouds
11:15 PM 51.8 °F 50.0 °F 94% 30.33 in 10.0 mi North 9.2 mph - N/A   Scattered Clouds
11:35 PM 51.8 °F 50.0 °F 94% 30.33 in 10.0 mi North 10.4 mph 16.1 mph N/A   Mostly Cloudy
11:55 PM 51.8 °F 50.0 °F 94% 30.32 in 10.0 mi NNE 6.9 mph - N/A   Overcast